This demonstration page uses our WeatherBlox Daily Observations layout. Learn more.

Left ArrowRight Arrow

Hourly Observations for January 24, 2020

Temp ( °F °C ) Dew Point ( °F °C ) Humidity (%) Winds ( mph kmh ) Pressure ( in mb ) Visibility ( mi km ) Precip ( " mm )
12:53 am 00:53 Cloudy 27 -2.8 24 -4.4 89 89 NNW 17 28 30.11 1020 7 11 0.00 0.00
1:53 am 01:53 Cloudy 27 -2.8 24 -4.4 89 89 N 16 26 30.11 1020 8 13 0.00 0.00
2:53 am 02:53 Cloudy 27 -2.8 23 -5 85 85 NNW 16 26 30.11 1020 9 14 0.00 0.00
3:44 am 03:44 Cloudy 27 -3 23 -5 86 86 NNW 16 26 30.16 1021 10 16 0.00 0.00
3:53 am 03:53 Cloudy 27 -2.8 23 -5 85 85 NNW 15 24 30.12 1020 10 16 0.00 0.00
4:12 am 04:12 Cloudy 27 -3 23 -5 86 86 NNW 18 30 30.17 1022 10 16 0.00 0.00
4:53 am 04:53 Cloudy 26 -3.3 23 -5 88 88 NNW 18 30 30.12 1020 10 16 0.00 0.00
5:53 am 05:53 Cloudy 26 -3.3 23 -5 88 88 N 18 30 30.12 1020 10 16 0.00 0.00
6:53 am 06:53 Cloudy 26 -3.3 22 -5.6 84 84 N 17 28 30.13 1020 10 16 0.00 0.00
7:53 am 07:53 Cloudy 26 -3.3 22 -5.6 84 84 NNW 14 22 30.14 1021 10 16 0.00 0.00
8:53 am 08:53 Cloudy 26 -3.3 22 -5.6 84 84 NNW 16 26 30.15 1021 10 16 0.00 0.00
9:53 am 09:53 Cloudy 26 -3.3 22 -5.6 84 84 N 14 22 30.16 1021 10 16 0.00 0.00
10:53 am 10:53 Cloudy 27 -2.8 23 -5 85 85 NNW 13 20 30.17 1022 10 16 0.00 0.00
11:53 am 11:53 Cloudy 27 -2.8 23 -5 85 85 NW 13 20 30.16 1021 10 16 0.00 0.00
12:53 pm 12:53 Cloudy 28 -2.2 24 -4.4 85 85 NW 10 17 30.14 1021 10 16 0.00 0.00
1:53 pm 13:53 Cloudy 28 -2.2 25 -3.9 88 88 NNW 10 17 30.11 1020 10 16 0.00 0.00
2:53 pm 14:53 Cloudy 29 -1.7 25 -3.9 85 85 NW 10 17 30.11 1020 10 16 0.00 0.00
3:51 pm 15:51 Cloudy 30 -1 25 -4 80 80 WNW 8 13 30.13 1020 10 16 0.00 0.00
3:53 pm 15:53 Cloudy 30 -1.1 25 -3.9 82 82 WNW 8 13 30.11 1020 10 16 0.00 0.00
4:20 pm 16:20 Cloudy 30 -1 25 -4 80 80 NW 7 11 30.14 1021 10 16 0.00 0.00
4:53 pm 16:53 Cloudy 29 -1.7 25 -3.9 85 85 NNW 6 9 30.11 1020 10 16 0.00 0.00
5:32 pm 17:32 Cloudy 28 -2 25 -4 86 86 NNW 5 7 30.14 1021 10 16 0.00 0.00
5:49 pm 17:49 Cloudy 28 -2 25 -4 86 86 NW 3 6 30.14 1021 10 16 0.00 0.00
5:53 pm 17:53 Cloudy 29 -1.7 25 -3.9 85 85 NW 3 6 30.11 1020 10 16 0.00 0.00
6:53 pm 18:53 Cloudy 29 -1.7 24 -4.4 82 82 N 6 9 30.11 1020 10 16 0.00 0.00
7:53 pm 19:53 Cloudy 29 -1.7 24 -4.4 82 82 Calm 30.12 1020 10 16 0.00 0.00
8:53 pm 20:53 Cloudy 25 -3.9 21 -6.1 85 85 Calm 30.12 1020 10 16 0.00 0.00
9:10 pm 21:10 Partly Cloudy 25 -3.9 22 -5.6 88 88 Calm 30.17 1022 10 16 0.00 0.00
9:37 pm 21:37 Mostly Cloudy 23 -5 20 -6.7 88 88 Calm 30.17 1022 10 16 0.00 0.00
9:53 pm 21:53 Cloudy 24 -4.4 21 -6.1 88 88 Calm 30.11 1020 10 16 0.00 0.00
10:53 pm 22:53 Cloudy 25 -3.9 22 -5.6 88 88 WSW 3 6 30.11 1020 10 16 0.00 0.00
11:53 pm 23:53 Cloudy 25 -3.9 23 -5 92 92 W 5 7 30.12 1020 10 16 0.00 0.00

Powered by AerisWeather